Content
SEND FEEDBACK

Daily
Averages
Monthly
Summary
French Polynesia

PAPEETE, FRENCH POLYNESIA


Home > Oceania > French Polynesia
Elevation: 7 feet     Latitude: 17 33S     Longitude: 149 36W

WEATHER
 
SELECT A DAY
Number of Records: 214,334;   Date Range: 6/30/96 - 10/23/14
 
SHARE

PRINT THIS DATA

[ ← Previous Day ]
WEATHER ALMANAC - MAY 4, 2014
[ Next Day → ]
[ °C ]   °F
Weather ElementAverageHighLow
Temperature80.3 °F86 °F (12:30 pm)75.2 °F (3:00 am)
Dewpoint72.8 °F77 °F (8:30 pm)69 °F (2:00 am)
Humidity77.3 %89 % (8:30 pm)66 % (1:00 pm)
Barometer29.83 in29.87 in (8:00 am)29.80 in (2:00 am)
Wind Speed5.8 mph15 mph (6:30 pm)
Weather ElementAverage
Visibility7.6 mi
Wind DirectionE (92.8 °)

Weather ElementTotal
Precipitation---
Cooling Degree Days15.6 (Base 65)
Growing Degree Days30.6 (Base 50)
Averaged from 55 records on May 4, 2014
WEATHER CONDITIONS BREAKOUT
WIND DIRECTION BREAKOUT
WEATHER BY HOUR - MAY 4, 2014
[ °C ]   °F
Local TimeTemperatureDewpointHumidityBarometerVisibilityWind DirectionWind SpeedGust SpeedPrecipitationEventsConditions
12:30 AM77.0 °F69.8 °F78 %29.83 in6.2 miESE (110°)3.5 mphScattered Clouds
1:00 AM77.0 °F69.8 °F78 %29.83 in6.2 miVariable1.2 mphScattered Clouds
1:30 AM77.0 °F69.8 °F78 %29.83 in6.2 miESE (120°)1.2 mphScattered Clouds
2:00 AM76.0 °F69.0 °F75 %29.82 in12.0 miSouth (170°)3.5 mphScattered Clouds
2:00 AM77.0 °F69.8 °F78 %29.80 in6.2 miSouth (170°)3.5 mphScattered Clouds
2:30 AM77.0 °F69.8 °F78 %29.80 in6.2 miEast (90°)2.3 mphScattered Clouds
3:00 AM75.2 °F69.8 °F83 %29.83 in6.2 miEast (90°)3.5 mphScattered Clouds
3:30 AM75.2 °F69.8 °F83 %29.80 in6.2 miEast (100°)4.6 mph
4:00 AM75.2 °F69.8 °F83 %29.80 in6.2 miESE (110°)4.6 mph
4:30 AM75.2 °F69.8 °F83 %29.80 in6.2 miEast (100°)4.6 mph
5:00 AM76.0 °F69.0 °F75 %29.82 in37.0 miEast (80°)4.6 mphClear
5:00 AM75.2 °F69.8 °F83 %29.80 in6.2 miEast (80°)4.6 mph
5:30 AM77.0 °F69.8 °F78 %29.80 in6.2 miEast (100°)3.5 mphPartly Cloudy
6:00 AM77.0 °F69.8 °F78 %29.83 in6.2 miVariable2.3 mphOvercast
6:30 AM77.0 °F69.8 °F78 %29.83 in6.2 miSouth (180°)4.6 mphOvercast
7:00 AM77.0 °F69.8 °F78 %29.86 in6.2 miCalmOvercast
7:36 AM78.8 °F69.8 °F74 %29.86 in6.2 miSouth (180°)3.5 mphOvercast
8:00 AM80.0 °F71.0 °F68 %29.87 in16.0 miSSW (200°)4.6 mphPartly Cloudy
8:00 AM80.6 °F71.6 °F74 %29.86 in6.2 miSSW (200°)4.6 mphOvercast
8:30 AM80.6 °F71.6 °F74 %29.86 in6.2 miSW (220°)4.6 mphMostly Cloudy
9:00 AM80.6 °F71.6 °F74 %29.86 in6.2 miSW (220°)6.9 mphMostly Cloudy
9:30 AM80.6 °F71.6 °F74 %29.86 in6.2 miSW (220°)4.6 mphMostly Cloudy
10:00 AM80.6 °F71.6 °F74 %29.86 in6.2 miCalmMostly Cloudy
10:30 AM82.4 °F73.4 °F74 %29.86 in6.2 miWSW (240°)3.5 mphMostly Cloudy
11:00 AM82.0 °F73.0 °F68 %29.85 in16.0 miCalmScattered Clouds
11:00 AM82.4 °F73.4 °F74 %29.83 in6.2 miCalmMostly Cloudy
11:30 AM82.4 °F73.4 °F74 %29.83 in6.2 miNNW (340°)4.6 mphMostly Cloudy
12:00 PM84.2 °F75.2 °F74 %29.83 in6.2 miENE (60°)11.5 mphMostly Cloudy
12:30 PM86.0 °F75.2 °F70 %29.83 in6.2 miENE (60°)12.7 mphMostly Cloudy
1:00 PM86.0 °F73.4 °F66 %29.83 in6.2 miENE (60°)13.8 mphMostly Cloudy
1:30 PM86.0 °F75.2 °F70 %29.80 in6.2 miNE (50°)8.1 mphMostly Cloudy
2:00 PM84.0 °F75.0 °F68 %29.81 in12.0 miNE (40°)6.9 mphOvercast
2:00 PM84.2 °F75.2 °F74 %29.80 in6.2 miNE (40°)6.9 mphMostly Cloudy
2:30 PM84.2 °F75.2 °F74 %29.80 in6.2 miNE (40°)10.4 mphMostly Cloudy
3:00 PM82.4 °F75.2 °F79 %29.80 in6.2 miNE (50°)8.1 mphMostly Cloudy
3:30 PM84.2 °F73.4 °F70 %29.80 in6.2 miENE (60°)10.4 mphMostly Cloudy
4:00 PM84.2 °F75.2 °F74 %29.80 in6.2 miNE (50°)9.2 mphScattered Clouds
4:30 PM84.2 °F73.4 °F70 %29.80 in6.2 miNE (40°)9.2 mphScattered Clouds
5:00 PM83.0 °F74.0 °F66 %29.82 in12.0 miENE (60°)8.1 mphPartly Cloudy
5:00 PM82.4 °F73.4 °F74 %29.80 in6.2 miENE (60°)8.1 mphMostly Cloudy
5:30 PM82.4 °F73.4 °F74 %29.80 in6.2 miENE (60°)9.2 mphMostly Cloudy
6:00 PM80.6 °F75.2 °F84 %29.83 in5.6 miNNE (30°)10.4 mphScattered Clouds
6:30 PM80.6 °F75.2 °F84 %29.83 in6.2 miNorth (360°)15.0 mphThunderstormMostly Cloudy
7:00 PM80.6 °F75.2 °F84 %29.86 in6.2 miNorth (10°)9.2 mphThunderstormThunderstorm
7:30 PM80.6 °F75.2 °F84 %29.86 in5.0 miNE (40°)4.6 mphRainLight Rain
8:00 PM80.0 °F76.0 °F82 %29.87 in9.0 miNNE (30°)8.1 mphRainLight Rain
8:00 PM80.6 °F75.2 °F84 %29.86 in6.2 miNNE (30°)8.1 mphMostly Cloudy
8:30 PM80.6 °F77.0 °F89 %29.86 in6.2 miNNE (20°)8.1 mphMostly Cloudy
9:00 PM80.6 °F75.2 °F84 %29.86 in6.2 miENE (60°)6.9 mphMostly Cloudy
9:30 PM80.6 °F75.2 °F84 %29.83 in6.2 miENE (60°)5.8 mphMostly Cloudy
10:00 PM80.6 °F75.2 °F84 %29.83 in6.2 miENE (60°)5.8 mphMostly Cloudy
10:30 PM80.6 °F75.2 °F84 %29.83 in6.2 miENE (70°)5.8 mphScattered Clouds
11:00 PM80.0 °F75.0 °F81 %29.84 in12.0 miNE (50°)3.5 mphPartly Cloudy
11:00 PM80.6 °F75.2 °F84 %29.83 in6.2 miNE (50°)3.5 mphScattered Clouds
11:30 PM78.8 °F75.2 °F89 %29.83 in6.2 miEast (90°)4.6 mphMostly Cloudy
Hourly data recorded from NTAA, located miles away from Papeete, French Polynesia







STORIES FROM OUR PARTNERS